[[{"header":{"parameterUnit":"m.s-1","parameterCategory":1,"la1":30.2991,"la2":30.254,"lo1":-89.0895,"lo2":-89.0444,"dy":0.0017,"dx":0.0017,"nx":28,"ny":28,"refTime":"2025-06-21T21:00:00:Z","depth":0,"parameterNumber":2,"parameterNumberName":"U-component_of_WINDS"},"data":[0,0,0,0,0,0,0,0,0,0,0,0,0,0,0,0,0,0,0,0,0,0,0,0,0,0,0,0,0,0,0,0,0,0,0,0,0,0,0,0,0,0,0,0,0,0,0,0,0,0,0,0,0,0,0,0,0,0,-2.2336,-2.2336,0,-2.2338,-2.2338,-2.2338,-2.2313,-2.2313,-2.2312,-2.2311,-2.2312,-2.2313,-2.2313,0,0,0,0,0,0,0,0,0,0,0,0,0,-2.2314,-2.2315,-2.2336,-2.2336,-2.2336,-2.2338,-2.2338,-2.2338,-2.2313,-2.2313,-2.2312,-2.2311,-2.2312,-2.2313,-2.2313,0,0,0,0,0,0,0,0,0,0,0,0,0,-2.232,-2.2315,-2.2336,-2.2324,-2.2323,-2.2337,-2.2338,-2.2338,-2.2314,-2.2313,-2.2312,-2.2311,-2.2312,-2.2312,-2.2313,-2.2339,0,0,-2.2316,-2.2317,0,0,0,0,0,0,0,0,-2.232,-2.2321,-2.2326,-2.2325,-2.2324,-2.2324,-2.233,-2.2338,-2.2314,-2.2317,-2.2311,-2.231,-2.2317,-2.2317,-2.232,-2.2339,-2.2339,-2.2316,-2.2317,-2.2317,-2.2318,0,0,0,0,0,0,0,-2.232,-2.2321,-2.2337,-2.2326,-2.2325,-2.2319,-2.2319,-2.2331,-2.2322,-2.2317,-2.2315,-2.2316,-2.2316,-2.2319,-2.2319,-2.2339,-2.2316,-2.2317,-2.2318,-2.2318,-2.2381,-2.2382,0,0,0,0,0,0,-2.2321,-2.2321,-2.2337,-2.2337,-2.232,-2.2321,-2.232,-2.2325,-2.2322,-2.2321,-2.2316,-2.2315,-2.2318,-2.2318,-2.2319,-2.235,-2.2317,-2.2318,-2.2319,-2.238,-2.2381,-2.2383,0,0,0,0,0,0,-2.232,-2.2322,-2.2337,-2.2328,-2.233,-2.2322,-2.2328,-2.2326,-2.2328,-2.2322,-2.232,-2.2321,-2.2317,-2.2318,-2.2335,-2.2349,-2.2319,-2.2319,-2.2379,-2.238,-2.2382,-2.241,0,0,0,0,0,0,-2.232,-2.2322,-2.2331,-2.2329,-2.233,-2.2351,-2.2328,-2.2326,-2.233,-2.2328,-2.2326,-2.2324,-2.2316,-2.2333,-2.2336,-2.235,-2.232,-2.2377,-2.2379,-2.2381,-2.2408,-2.2412,-2.2417,0,0,0,0,0,-2.2319,-2.2338,-2.2332,-2.2334,-2.2341,-2.2352,-2.2353,-2.2344,-2.2331,-2.2341,-2.2337,-2.2324,-2.2348,-2.2335,-2.2337,-2.2353,-2.2376,-2.2379,-2.2381,-2.2406,-2.2412,-2.2416,0,0,0,0,0,0,-2.2342,-2.2338,-2.233,-2.2349,-2.2352,-2.2348,-2.2359,-2.235,-2.2355,-2.2352,-2.234,-2.234,-2.2359,-2.2358,-2.2344,-2.2378,-2.236,-2.2363,-2.2378,-2.2383,-2.2388,-2.2387,-2.2321,0,0,0,0,0,-2.2349,-2.2358,-2.2355,-2.2372,-2.2373,-2.2367,-2.2371,-2.2364,-2.2365,-2.2366,-2.2363,-2.2365,-2.2373,-2.2378,-2.2385,-2.2408,-2.2408,-2.242,-2.2424,-2.2428,-2.243,-2.2444,-2.245,-2.2391,-2.2391,-2.2391,0,0,-2.2364,-2.2363,-2.2369,-2.2377,-2.2377,-2.2387,-2.2367,-2.2378,-2.2386,-2.2367,-2.2383,-2.2382,-2.2383,-2.2404,-2.2412,-2.2403,-2.2447,-2.2431,-2.2434,-2.2435,-2.2447,-2.2453,-2.2458,-2.2392,-2.2392,-2.2392,0,0,-2.2397,-2.2397,-2.2412,-2.2414,-2.2416,-2.2411,-2.2415,-2.2414,-2.2413,-2.2429,-2.2415,-2.2425,-2.2438,-2.2441,-2.2443,-2.2481,-2.2469,-2.2483,-2.2506,-2.2519,-2.2524,-2.2528,-2.2541,-2.2546,-2.2486,-2.2486,-2.2486,0,-2.2415,-2.2429,-2.2421,-2.2433,-2.2437,-2.2423,-2.2438,-2.2441,-2.2445,-2.2448,-2.2438,-2.2456,-2.2456,-2.2478,-2.2487,-2.249,-2.2494,-2.2482,-2.2524,-2.2528,-2.2531,-2.2544,-2.2549,-2.2488,-2.2488,-2.2488,-2.2487,0,-2.2452,-2.2463,-2.2475,-2.248,-2.2486,-2.25,-2.2494,-2.2501,-2.2495,-2.2492,-2.2509,-2.2509,-2.2517,-2.2522,-2.2515,-2.2543,-2.2537,-2.2526,-2.2507,-2.2539,-2.2551,-2.2556,-2.249,-2.249,-2.2489,-2.2489,0,0,-2.2495,-2.2498,-2.2503,-2.2506,-2.2509,-2.2517,-2.2532,-2.254,-2.2546,-2.2551,-2.2563,-2.2576,-2.2567,-2.257,-2.2564,-2.2576,-2.2606,-2.2563,-2.2563,-2.2571,-2.2638,-2.2646,-2.2652,-2.26,-2.2601,-2.2602,-2.2638,0,-2.2527,-2.2551,-2.2546,-2.257,-2.258,-2.2569,-2.2581,-2.2585,-2.2584,-2.2593,-2.2592,-2.2602,-2.2588,-2.259,-2.2602,-2.26,-2.262,-2.2598,-2.2611,-2.2612,-2.261,-2.2658,-2.2666,-2.27,-2.2643,-2.2644,-2.2644,0,-2.2566,-2.2573,-2.2599,-2.2602,-2.2606,-2.2618,-2.2626,-2.2635,-2.2639,-2.2638,-2.2644,-2.2636,-2.2651,-2.2634,-2.2656,-2.2641,-2.2647,-2.2648,-2.2649,-2.2649,-2.2629,-2.2659,-2.2711,-2.2716,-2.2651,-2.2651,-2.265,0,-2.2595,-2.2611,-2.2629,-2.2632,-2.2636,-2.2645,-2.2647,-2.2651,-2.2657,-2.2665,-2.2669,-2.2678,-2.2683,-2.2691,-2.2687,-2.2674,-2.2709,-2.2691,-2.2709,-2.2709,-2.2715,-2.2714,-2.2768,-2.272,-2.272,-2.272,-2.272,0,-2.263,-2.2646,-2.2643,-2.2653,-2.2672,-2.2666,-2.2685,-2.2686,-2.269,-2.2701,-2.2692,-2.2703,-2.2697,-2.2708,-2.2705,-2.2724,-2.2727,-2.2726,-2.2725,-2.2726,-2.2726,-2.2729,-2.2726,-2.2722,-2.2721,-2.2721,-2.2721,0,-2.2665,-2.2663,-2.2682,-2.2685,-2.2687,-2.27,-2.2703,-2.2714,-2.2714,-2.2728,-2.2732,-2.2731,-2.2743,-2.2741,-2.2754,-2.2752,-2.2776,-2.2772,-2.2775,-2.2773,-2.2791,-2.2789,-2.2847,-2.2854,-2.2803,-2.2803,-2.2804,0,-2.2686,-2.2699,-2.2705,-2.2712,-2.2715,-2.2727,-2.2734,-2.273,-2.2737,-2.2745,-2.2756,-2.2768,-2.2777,-2.2798,-2.2799,-2.281,-2.2806,-2.2826,-2.2807,-2.2809,-2.2806,-2.2805,-2.2807,-2.2829,-2.2829,-2.283,-2.283,0,-2.2725,-2.2725,-2.2735,-2.2746,-2.2754,-2.2762,-2.277,-2.2776,-2.2773,-2.2783,-2.2796,-2.2804,-2.2819,-2.2831,-2.2842,-2.2845,-2.2838,-2.2837,-2.2841,-2.2842,-2.2843,-2.2843,-2.2784,-2.2835,-2.2834,-2.2834,-2.2834,-2.2833,-2.2754,-2.2765,-2.2772,-2.2784,-2.279,-2.2797,-2.2808,-2.281,-2.2821,-2.2833,-2.2831,-2.2846,-2.2853,-2.2867,-2.2872,-2.2885,-2.2877,-2.2884,-2.2885,-2.2887,-2.2889,-2.2842,-2.2887,-2.2886,-2.2886,-2.2886,-2.2886,0,-2.2792,-2.2797,-2.2808,-2.282,-2.283,-2.2823,-2.2832,-2.2841,-2.2855,-2.2862,-2.2872,-2.2889,-2.2902,-2.2905,-2.2918,-2.2927,-2.2925,-2.2931,-2.293,-2.2931,-2.2894,-2.2889,-2.2933,-2.2933,-2.2933,-2.2933,-2.2933,-2.2933,-2.2813,-2.2832,-2.2833,-2.2856,-2.286,-2.2875,-2.2881,-2.2889,-2.2895,-2.2914,-2.2925,-2.2927,-2.2933,-2.2947,-2.2959,-2.296,-2.2965,-2.2973,-2.2972,-2.2938,-2.2933,-2.2928,-2.2923,-2.2974,-2.2974,-2.3007,-2.3007,-2.3007]},{"header":{"parameterUnit":"m.s-1","parameterCategory":1,"la1":30.2991,"la2":30.254,"lo1":-89.0895,"lo2":-89.0444,"dy":0.0017,"dx":0.0017,"nx":28,"ny":28,"refTime":"2025-06-21T21:00:00:Z","depth":0,"parameterNumber":3,"parameterNumberName":"V-component_of_WINDS"},"data":[0,0,0,0,0,0,0,0,0,0,0,0,0,0,0,0,0,0,0,0,0,0,0,0,0,0,0,0,0,0,0,0,0,0,0,0,0,0,0,0,0,0,0,0,0,0,0,0,0,0,0,0,0,0,0,0,0,0,2.656,2.656,0,2.659,2.659,2.6591,2.6653,2.6655,2.6656,2.6657,2.6683,2.6683,2.6682,0,0,0,0,0,0,0,0,0,0,0,0,0,2.6554,2.6553,2.656,2.656,2.6561,2.659,2.659,2.6591,2.6653,2.6655,2.6656,2.6658,2.6683,2.6683,2.6682,0,0,0,0,0,0,0,0,0,0,0,0,0,2.6567,2.6553,2.656,2.6595,2.6599,2.659,2.659,2.6591,2.6653,2.6655,2.6657,2.6658,2.6683,2.6683,2.6682,2.6639,0,0,2.668,2.6679,0,0,0,0,0,0,0,0,2.6566,2.6567,2.659,2.6593,2.6597,2.662,2.6598,2.6607,2.6652,2.6632,2.6657,2.6659,2.666,2.6661,2.6663,2.664,2.6642,2.668,2.6679,2.6679,2.6679,0,0,0,0,0,0,0,2.6565,2.6566,2.6572,2.659,2.6594,2.6609,2.6613,2.66,2.6635,2.6634,2.6639,2.6642,2.6662,2.6663,2.6664,2.6642,2.668,2.6679,2.6678,2.6678,2.6587,2.6585,0,0,0,0,0,0,2.656,2.6565,2.6571,2.6573,2.6586,2.6607,2.6612,2.6611,2.6635,2.6641,2.664,2.6644,2.6664,2.6665,2.6665,2.6617,2.6679,2.6678,2.6678,2.6589,2.6587,2.6585,0,0,0,0,0,0,2.6559,2.656,2.657,2.657,2.6573,2.6606,2.6603,2.661,2.6611,2.664,2.6646,2.6635,2.6665,2.6666,2.6646,2.6619,2.6678,2.6677,2.6591,2.6588,2.6586,2.652,0,0,0,0,0,0,2.6559,2.6559,2.6544,2.6569,2.6572,2.655,2.6602,2.6609,2.661,2.6616,2.6636,2.6642,2.6667,2.6646,2.6645,2.6619,2.6677,2.6594,2.659,2.6587,2.6525,2.6515,2.6507,0,0,0,0,0,2.6558,2.6523,2.6543,2.6543,2.6554,2.6549,2.655,2.6581,2.6608,2.6592,2.6611,2.6641,2.6622,2.6644,2.6643,2.6616,2.6596,2.6591,2.6587,2.6529,2.6517,2.6507,0,0,0,0,0,0,2.6491,2.6527,2.6549,2.6521,2.6532,2.6559,2.6541,2.6568,2.657,2.6575,2.6613,2.6617,2.6591,2.6602,2.6625,2.6576,2.6614,2.6609,2.657,2.6559,2.6551,2.6548,2.6676,0,0,0,0,0,2.6473,2.6467,2.6498,2.647,2.6475,2.6507,2.6506,2.6529,2.6541,2.6545,2.6562,2.6571,2.6568,2.6564,2.6563,2.6527,2.6532,2.6508,2.65,2.6492,2.6487,2.6469,2.6459,2.657,2.657,2.657,0,0,2.6435,2.6454,2.6448,2.6457,2.6468,2.646,2.651,2.6499,2.6493,2.6543,2.6525,2.6538,2.6551,2.6523,2.6512,2.6531,2.6458,2.6487,2.648,2.6479,2.6464,2.6453,2.6444,2.6567,2.6567,2.6568,0,0,2.6363,2.6377,2.6355,2.6366,2.6383,2.6405,2.64,2.6424,2.6435,2.6419,2.6456,2.6449,2.6442,2.645,2.6453,2.6386,2.6413,2.6384,2.6337,2.632,2.6311,2.6303,2.6279,2.627,2.6379,2.6379,2.6379,0,2.6313,2.6304,2.634,2.6328,2.6331,2.6378,2.6357,2.6365,2.6379,2.638,2.6402,2.6395,2.6407,2.6382,2.6366,2.6367,2.6362,2.6381,2.6309,2.6302,2.6296,2.6273,2.6263,2.6375,2.6376,2.6376,2.6376,0,2.6242,2.6235,2.6216,2.6231,2.6232,2.6215,2.6248,2.6245,2.6269,2.6288,2.627,2.6287,2.629,2.6286,2.6308,2.6264,2.6276,2.6303,2.6341,2.6281,2.626,2.6251,2.637,2.6371,2.6372,2.6373,0,0,2.6125,2.6163,2.6155,2.6163,2.6186,2.6181,2.6166,2.6171,2.6167,2.6176,2.6164,2.6158,2.6184,2.6188,2.6211,2.6196,2.6142,2.6226,2.6227,2.6209,2.6094,2.6072,2.6062,2.6161,2.616,2.6158,2.6093,0,2.6057,2.6035,2.6068,2.6038,2.6032,2.6078,2.6065,2.6077,2.6095,2.6092,2.6112,2.6107,2.6142,2.6145,2.6132,2.6151,2.6119,2.6156,2.6149,2.6148,2.6143,2.6051,2.6028,2.5965,2.6085,2.6084,2.6083,0,2.5973,2.5981,2.595,2.5977,2.5976,2.5963,2.5971,2.5968,2.5983,2.5997,2.6002,2.6032,2.6018,2.6057,2.6038,2.6063,2.6062,2.6071,2.607,2.6069,2.6111,2.6047,2.5946,2.5936,2.607,2.6071,2.6072,0,2.5891,2.5893,2.5875,2.5881,2.5911,2.5902,2.5913,2.5931,2.5932,2.5938,2.5939,2.5943,2.5945,2.5947,2.5977,2.6002,2.5955,2.5995,2.5965,2.5964,2.5952,2.5952,2.5848,2.5953,2.5953,2.5953,2.5953,0,2.581,2.5789,2.5839,2.5827,2.5806,2.5845,2.5822,2.5839,2.5854,2.5846,2.5886,2.5878,2.5918,2.5914,2.5937,2.5918,2.5919,2.5929,2.5935,2.5925,2.5924,2.5924,2.5929,2.5951,2.5951,2.5952,2.5952,0,2.5713,2.5745,2.5729,2.576,2.5768,2.575,2.5777,2.5767,2.5789,2.5779,2.5779,2.5812,2.581,2.584,2.5843,2.5858,2.5829,2.5843,2.5824,2.5828,2.5796,2.5798,2.5688,2.5675,2.5788,2.5787,2.5786,0,2.5659,2.5644,2.5675,2.5674,2.5684,2.5681,2.5683,2.5722,2.5722,2.5739,2.5727,2.5729,2.5732,2.5725,2.5749,2.5752,2.5766,2.5727,2.5766,2.5756,2.5764,2.5764,2.5763,2.5718,2.5716,2.5715,2.5714,0,2.5559,2.5576,2.5578,2.5587,2.5588,2.5596,2.5606,2.5603,2.5644,2.5643,2.5642,2.5644,2.5648,2.5649,2.5656,2.5668,2.5697,2.5702,2.5695,2.5684,2.5673,2.5678,2.58,2.5704,2.5705,2.5706,2.5706,2.5707,2.5481,2.5471,2.5491,2.5493,2.5505,2.5514,2.5507,2.5529,2.553,2.5537,2.556,2.5555,2.5571,2.5585,2.5594,2.559,2.5609,2.5599,2.5596,2.5593,2.5587,2.5675,2.5592,2.5592,2.5592,2.5593,2.5593,0,2.5383,2.5399,2.54,2.5415,2.5416,2.5446,2.546,2.5458,2.5454,2.5468,2.5471,2.547,2.5471,2.5496,2.55,2.5492,2.5506,2.5492,2.5492,2.5494,2.557,2.5575,2.548,2.548,2.548,2.548,2.548,2.548,2.5332,2.5317,2.5336,2.5327,2.5344,2.534,2.5345,2.5354,2.5365,2.5363,2.5365,2.5382,2.54,2.5406,2.5409,2.5416,2.5415,2.5396,2.5408,2.5478,2.5488,2.5499,2.5504,2.5396,2.5396,2.5332,2.5332,2.5331]}]]